User: anonymous   Login
Location: ?
(35.4064°N, 139.3593°E)
Time: 16:10:10
(UTC+00:00)
Language:

SL-16 R/B - Orbit

View from above orbital plane
View from above orbital plane
View from above satellite
View from above satellite

Ground track
Ground track

The orbit data is extracted from the following two-line orbital elements,

1 28353U 04021B   24176.94321442 -.00000013  00000-0  17824-4 0  9998
2 28353  71.0020  99.2177 0007505 267.4596  92.5667 14.14426886 34774
Epoch (UTC): 24 June 2024 22:38:13
Eccentricity: 0.0007505
inclination: 71.0020°
perigee height: 839 km
apogee height: 849 km
right ascension of ascending node: 99.2177°
argument of perigee: 267.4596°
revolutions per day: 14.14426886
mean anomaly at epoch: 92.5667°
orbit number at epoch: 3477

The dashed part of the orbit path shows where the satellite is in the earth's shadow,  

DLR